| time (UTC) | temp F | wind direction | speed MPH | gust MPH | rain 1hr in | rain 24hr in | rain mn in | humidity % | barometer mb |
| 20260508144552 | 53 | 0 | 0.0 | 0.0 | 0.00 | 0.00 | 0.00 | 58 | 1001.8 |
| 20260508143056 | 53 | 0 | 0.0 | 0.0 | 0.00 | 0.00 | 0.00 | 53 | 1002.1 |
| 20260508141551 | 52 | 0 | 0.0 | 1.0 | 0.00 | 0.00 | 0.00 | 55 | 1002.2 |
| 20260508140050 | 51 | 0 | 0.0 | 0.0 | 0.00 | 0.00 | 0.00 | 56 | 1002.3 |
| 20260508134619 | 52 | 0 | 0.0 | 0.0 | 0.00 | 0.00 | 0.00 | 56 | 1002.3 |
| 20260508133109 | 51 | 0 | 0.0 | 0.0 | 0.00 | 0.00 | 0.00 | 59 | 1002.2 |
| 20260508131550 | 50 | 0 | 0.0 | 0.0 | 0.00 | 0.00 | 0.00 | 62 | 1002.2 |
| 20260508130056 | 49 | 0 | 0.0 | 0.0 | 0.00 | 0.00 | 0.00 | 63 | 1002.3 |
| 20260508124552 | 48 | 0 | 0.0 | 0.0 | 0.00 | 0.00 | 0.00 | 66 | 1002.3 |
| 20260508123103 | 47 | 0 | 0.0 | 6.0 | 0.00 | 0.00 | 0.00 | 69 | 1002.4 |
| 20260508121559 | 47 | 127 | 2.0 | 6.0 | 0.00 | 0.00 | 0.00 | 72 | 1002.4 |
| 20260508120056 | 46 | 135 | 1.0 | 5.0 | 0.00 | 0.00 | 0.00 | 74 | 1002.6 |
| 20260508114559 | 45 | 116 | 1.0 | 7.0 | 0.00 | 0.00 | 0.00 | 76 | 1002.6 |
| 20260508113056 | 44 | 220 | 2.0 | 8.0 | 0.00 | 0.00 | 0.00 | 78 | 1002.6 |
| 20260508111559 | 43 | 189 | 1.0 | 6.0 | 0.00 | 0.00 | 0.00 | 84 | 1002.7 |
| 20260508110051 | 41 | 160 | 1.0 | 3.0 | 0.00 | 0.00 | 0.00 | 86 | 1002.4 |
| 20260508104555 | 41 | 0 | 0.0 | 0.0 | 0.00 | 0.00 | 0.00 | 85 | 1002.1 |
| 20260508103053 | 40 | 0 | 0.0 | 0.0 | 0.00 | 0.00 | 0.00 | 85 | 1002.2 |
| 20260508101549 | 40 | 0 | 0.0 | 0.0 | 0.00 | 0.00 | 0.00 | 85 | 1002.1 |
| 20260508100055 | 41 | 0 | 0.0 | 0.0 | 0.00 | 0.00 | 0.00 | 83 | 1002.1 |
| 20260508094602 | 41 | 0 | 0.0 | 1.0 | 0.00 | 0.00 | 0.00 | 82 | 1001.8 |
| 20260508093053 | 42 | 0 | 0.0 | 0.0 | 0.00 | 0.00 | 0.00 | 80 | 1001.8 |
| 20260508091614 | 42 | 0 | 0.0 | 0.0 | 0.00 | 0.00 | 0.00 | 79 | 1001.7 |
| 20260508084552 | 44 | 0 | 0.0 | 3.0 | 0.00 | 0.00 | 0.00 | 75 | 1001.6 |
| 20260508083053 | 45 | 0 | 0.0 | 2.0 | 0.00 | 0.00 | 0.00 | 74 | 1001.4 |
| 20260508081552 | 45 | 191 | 2.0 | 6.0 | 0.00 | 0.00 | 0.00 | 71 | 1001.5 |
| 20260508080055 | 45 | 50 | 1.0 | 4.0 | 0.00 | 0.00 | 0.00 | 72 | 1001.5 |
| 20260508074549 | 45 | 169 | 1.0 | 4.0 | 0.00 | 0.00 | 0.00 | 73 | 1001.3 |
| 20260508073053 | 45 | 223 | 0.0 | 3.0 | 0.00 | 0.00 | 0.00 | 75 | 1001.2 |
| 20260508071554 | 45 | 210 | 1.0 | 5.0 | 0.00 | 0.00 | 0.00 | 74 | 1001.4 |
| 20260508070100 | 45 | 225 | 2.0 | 8.0 | 0.00 | 0.00 | 0.00 | 75 | 1001.4 |
| 20260508064552 | 45 | 202 | 0.0 | 7.0 | 0.00 | 0.00 | 0.00 | 75 | 1001.5 |
| 20260508063125 | 45 | 230 | 0.0 | 4.0 | 0.00 | 0.00 | 0.00 | 74 | 1001.5 |
| 20260508061554 | 46 | 0 | 0.0 | 2.0 | 0.00 | 0.00 | 0.00 | 72 | 1001.3 |
| 20260508060056 | 47 | 200 | 0.0 | 4.0 | 0.00 | 0.00 | 0.00 | 69 | 1001.7 |
| 20260508054549 | 48 | 149 | 2.0 | 11.0 | 0.00 | 0.01 | 0.00 | 64 | 1001.8 |
| 20260508053058 | 48 | 146 | 1.0 | 3.0 | 0.00 | 0.01 | 0.00 | 62 | 1001.4 |
| 20260508051616 | 48 | 0 | 0.0 | 3.0 | 0.00 | 0.01 | 0.00 | 59 | 1001.2 |
| 20260508050055 | 48 | 306 | 0.0 | 2.0 | 0.00 | 0.01 | 0.00 | 60 | 1000.4 |
| 20260508044550 | 48 | 18 | 0.0 | 0.0 | 0.00 | 0.01 | 0.00 | 63 | 1000.1 |
| 20260508043052 | 48 | 0 | 0.0 | 0.0 | 0.00 | 0.01 | 0.00 | 63 | 1000.4 |
| 20260508041554 | 48 | 0 | 0.0 | 0.0 | 0.00 | 0.01 | 0.00 | 63 | 1000.5 |
| 20260508040051 | 48 | 0 | 0.0 | 0.0 | 0.00 | 0.01 | 0.00 | 61 | 1000.3 |
| 20260508034551 | 49 | 0 | 0.0 | 1.0 | 0.00 | 0.01 | 0.01 | 60 | 1000.1 |
| 20260508033055 | 50 | 0 | 0.0 | 0.0 | 0.00 | 0.01 | 0.01 | 59 | 1000.4 |
| 20260508031552 | 50 | 0 | 0.0 | 2.0 | 0.00 | 0.01 | 0.01 | 56 | 1000.4 |
| 20260508030057 | 51 | 18 | 0.0 | 3.0 | 0.00 | 0.01 | 0.01 | 50 | 1000.4 |
| 20260508024601 | 50 | 357 | 2.0 | 7.0 | 0.00 | 0.01 | 0.01 | 50 | 1000.5 |
| 20260508023057 | 49 | 287 | 2.0 | 6.0 | 0.00 | 0.01 | 0.01 | 56 | 1000.6 |
| 20260508021554 | 48 | 313 | 1.0 | 4.0 | 0.00 | 0.01 | 0.01 | 56 | 1000.5 |
| 20260508020105 | 48 | 0 | 0.0 | 2.0 | 0.00 | 0.01 | 0.01 | 62 | 1000.5 |
| 20260508014554 | 48 | 0 | 0.0 | 2.0 | 0.00 | 0.01 | 0.01 | 60 | 1000.4 |
| 20260508013054 | 48 | 0 | 0.0 | 1.0 | 0.00 | 0.01 | 0.01 | 59 | 1000.3 |
| 20260508011554 | 48 | 0 | 0.0 | 0.0 | 0.00 | 0.01 | 0.01 | 60 | 1000.3 |
| 20260508010101 | 49 | 0 | 0.0 | 0.0 | 0.00 | 0.01 | 0.01 | 59 | 1000.0 |
| 20260508004554 | 49 | 0 | 0.0 | 0.0 | 0.00 | 0.02 | 0.01 | 57 | 999.9 |
| 20260508003100 | 50 | 0 | 0.0 | 1.0 | 0.00 | 0.02 | 0.01 | 57 | 999.6 |
| 20260508001558 | 51 | 0 | 0.0 | 3.0 | 0.00 | 0.02 | 0.01 | 55 | 999.4 |
| 20260508000048 | 52 | 0 | 0.0 | 2.0 | 0.00 | 0.02 | 0.01 | 54 | 999.2 |
| 20260507234552 | 53 | 2 | 0.0 | 2.0 | 0.00 | 0.13 | 0.01 | 52 | 999.3 |
| 20260507233051 | 54 | 0 | 0.0 | 2.0 | 0.00 | 0.13 | 0.01 | 51 | 999.1 |
| 20260507231551 | 55 | 330 | 0.0 | 2.0 | 0.00 | 0.13 | 0.01 | 50 | 999.0 |
| 20260507230108 | 56 | 333 | 0.0 | 4.0 | 0.00 | 0.13 | 0.01 | 48 | 999.1 |
| 20260507224552 | 57 | 4 | 1.0 | 3.0 | 0.00 | 0.13 | 0.01 | 47 | 998.9 |
| 20260507223155 | 57 | 141 | 2.0 | 8.0 | 0.00 | 0.13 | 0.01 | 39 | 998.8 |
| 20260507221555 | 58 | 131 | 1.0 | 3.0 | 0.00 | 0.13 | 0.01 | 40 | 998.9 |
| 20260507220049 | 58 | 0 | 0.0 | 3.0 | 0.00 | 0.13 | 0.01 | 44 | 999.0 |
| 20260507214558 | 59 | 136 | 0.0 | 4.0 | 0.00 | 0.14 | 0.01 | 40 | 999.0 |
| 20260507213100 | 58 | 150 | 0.0 | 7.0 | 0.00 | 0.14 | 0.01 | 39 | 998.7 |
| 20260507211553 | 59 | 157 | 1.0 | 6.0 | 0.00 | 0.14 | 0.01 | 38 | 998.6 |
| 20260507210057 | 59 | 0 | 3.0 | 5.0 | 0.00 | 0.14 | 0.01 | 39 | 998.5 |
| 20260507204551 | 60 | 0 | 1.0 | 8.0 | 0.00 | 0.14 | 0.01 | 39 | 998.6 |
| 20260507203054 | 59 | 121 | 1.0 | 9.0 | 0.00 | 0.14 | 0.01 | 40 | 998.5 |
| 20260507201605 | 60 | 104 | 3.0 | 6.0 | 0.00 | 0.14 | 0.01 | 37 | 998.5 |
| 20260507200104 | 59 | 146 | 2.0 | 6.0 | 0.00 | 0.14 | 0.01 | 42 | 998.4 |
| 20260507194552 | 59 | 148 | 0.0 | 4.0 | 0.00 | 0.15 | 0.01 | 40 | 998.9 |
| 20260507193053 | 59 | 134 | 5.0 | 11.0 | 0.00 | 0.15 | 0.01 | 39 | 998.7 |
| 20260507191550 | 58 | 125 | 2.0 | 8.0 | 0.00 | 0.15 | 0.01 | 39 | 999.0 |
| 20260507190053 | 58 | 151 | 2.0 | 9.0 | 0.00 | 0.15 | 0.01 | 39 | 999.1 |
| 20260507184549 | 60 | 133 | 3.0 | 9.0 | 0.00 | 0.17 | 0.01 | 39 | 999.0 |
| 20260507183055 | 59 | 205 | 1.0 | 7.0 | 0.00 | 0.17 | 0.01 | 40 | 999.3 |
| 20260507181601 | 58 | 177 | 1.0 | 9.0 | 0.00 | 0.17 | 0.01 | 41 | 999.5 |
| 20260507180056 | 58 | 21 | 3.0 | 10.0 | 0.00 | 0.17 | 0.01 | 42 | 999.5 |
| 20260507174557 | 59 | 58 | 2.0 | 7.0 | 0.00 | 0.29 | 0.01 | 45 | 999.7 |
| 20260507173059 | 58 | 164 | 3.0 | 9.0 | 0.00 | 0.29 | 0.01 | 42 | 999.9 |
| 20260507171600 | 58 | 230 | 2.0 | 7.0 | 0.00 | 0.29 | 0.01 | 44 | 1000.0 |
| 20260507170052 | 57 | 119 | 2.0 | 8.0 | 0.00 | 0.29 | 0.01 | 43 | 1000.0 |
| 20260507164554 | 57 | 218 | 3.0 | 9.0 | 0.00 | 0.37 | 0.01 | 41 | 1000.2 |
| 20260507163050 | 57 | 168 | 2.0 | 8.0 | 0.00 | 0.37 | 0.01 | 41 | 1000.1 |
| 20260507161607 | 57 | 129 | 1.0 | 8.0 | 0.00 | 0.37 | 0.01 | 45 | 1000.4 |
| 20260507160052 | 57 | 0 | 2.0 | 15.0 | 0.00 | 0.37 | 0.01 | 47 | 1000.8 |
| 20260507154553 | 55 | 127 | 2.0 | 9.0 | 0.00 | 0.46 | 0.01 | 45 | 1001.0 |
| 20260507153111 | 55 | 0 | 1.0 | 6.0 | 0.00 | 0.46 | 0.01 | 50 | 1001.3 |
| 20260507151558 | 54 | 31 | 3.0 | 10.0 | 0.00 | 0.46 | 0.01 | 46 | 1001.5 |
| 20260507150055 | 54 | 127 | 3.0 | 8.0 | 0.00 | 0.46 | 0.01 | 50 | 1001.4 |